SL-14 R/B

Satellite information

Favourite Embed

Satellite Type and Status

ROCKET BODYIN ORBIT

Key statistics

Satellite SL-14 R/B at a glance.

Uptime

11937

Days in orbit

Revolutions

≈ 14.8

Per day

Orbit

LEO

Low Earth Orbit

Inclination

82.5

Latest

Satellite identification and parameters

Extended collection of information and parameters for SL-14 R/B.

Object identification

Identified? True

Debris? False

Object name: SL-14 R/B

International designator: 1992-094B

Object number (NORAD): 22287

Object ID (CCSDS): 22287

Country: COMMONWEALTH OF INDEPENDENT STATES (CIS)

Current information (Y/N): Y

RCS size: LARGE

Orbital parameters

Period: 97.308 minutes

Inclination: 82.5269 deg

SMA: 7007.966 km

Apoapsis: 645.58 km

Periapsis: 614.083 km

RAAN: 170.5315 deg

Eccentricy: 0.00224726

Argument of periapsis: 240.3539 deg

Mean anomaly: 119.5436 deg

Mean motion: 14.79839942 rev/day

Mean motion (dot): 0.00000626 rev/day2

B* drag term: 0.000079817259 1/REarth

Two-line elements (TLE)

Creation date: Aug. 31, 2025, 2:26 a.m.

Reference frame: TEME

Reference center: EARTH

Epoch: Aug. 30, 2025, 9:29 p.m. UTC

TLE line 0: 0 SL-14 R/B

TLE line 1: 1 22287U 92094B 25242.89578425 .00000626 00000-0 79817-4 0 9998

TLE line 2: 2 22287 82.5269 170.5315 0022473 240.3539 119.5436 14.79839942740300

Live tracking on map

Real-time ground track for satellite SL-14 R/B.

In-orbit conjunctions

A list of the most updated potential collisions computed for object SL-14 R/B.

Target Orbit TCA Probability of collision Miss distance Type
NOAA 16 DEB SSO 2025-07-07 05:53:16 0.0003011386 136.0 (m) DEBRIS
FENGYUN 1C DEB SSO 2025-06-03 21:00:17 0.0001494269 369.0 (m) DEBRIS
YAOGAN 2 DEB SSO 2025-05-27 13:41:54 0.001788882 68.0 (m) DEBRIS
CZ-6A DEB LEO 2024-11-14 22:57:24 0.0001576998 944.0 (m) DEBRIS
CZ-6A DEB SSO 2024-09-20 06:26:14 0.0004883639 147.0 (m) DEBRIS

Associated space launch

Tselina-D satellites provided detailed observation of radio sources detected by the smaller Tselina-O satellites as part of the Tselina ELINT system.

SL-14 R/B was lifted into orbit during the mission ‘Tsiklon-3 | Tselina-D 68’, on board a Tsiklon-3 space rocket.

The launch took place on Dec. 25, 1992, 8:07 p.m. from 32/2.

For more information about the launch, click the button.

Launch to space Tsiklon-3 | Tselina-D 68
Tsiklon-3 | Tselina-D 68

Agency: N/A

Status: Launch Successful

Launch date: Dec. 25, 1992, 8:07 p.m. UTC

Rocket: Tsiklon-3

Launch pad: 32/2

Location: Plesetsk Cosmodrome, Russian Federation

...

Latest news about this satellite

There are no fresh news available about this satellite. Check back as we update our databases every day.


Newsletter sign-up

Weekly statistics, charts and insights to help you stay on top of the space industry.